Wetbulb
46.45 46.49 46.92 48.07 50.52 53.84 56.96 59.05 60.45 61.22 61.30 60.50 60.47 60.27 60.50 60.41 60.56 59.95 59.62 59.59 58.88 58.59 58.70 58.14 57.56 57.80 57.38 57.42 57.22 56.88 56.14 55.65 53.17 54.40 48.90 45.96 43.74 42.45 40.44 40.80 40.26 38.89 39.63
46.14 46.01 46.40 47.56 48.88 50.12 52.03 54.71 57.77 59.45 60.88 60.83 60.28 60.32 60.48 60.40 60.49 59.96 59.17 59.12 58.81 58.24 58.23 57.91 57.42 57.53 57.20 57.55 57.22 56.27 56.04 55.94 54.26 52.68 45.94 42.93 42.80 41.62 40.53 38.68 38.05 38.43 37.80
44.20 44.78 45.07 45.84 46.72 47.67 49.38 51.61 54.40 55.96 57.83 59.79 59.74 59.94 59.78 60.19 60.13 60.16 59.66 59.21 58.90 58.76 58.60 57.81 57.62 57.37 56.50 56.72 56.69 55.91 55.56 54.34 53.43 53.03 44.49 39.88 38.57 38.13 36.44 35.88 36.20 35.63 36.48
41.33 41.95 42.51 43.14 43.87 44.77 46.14 47.80 49.92 52.51 54.74 56.45 58.13 59.05 59.46 59.77 59.70 59.89 59.60 59.14 58.92 58.66 58.47 58.24 57.80 57.19 56.48 56.33 55.63 54.81 53.77 51.56 46.42 39.70 35.93 36.37 35.98 34.64 34.60 33.89 33.12 32.90 32.86
39.02 39.19 39.77 40.83 41.22 41.31 42.03 42.92 44.30 46.34 48.82 51.98 54.71 56.28 57.56 58.31 58.86 59.05 58.96 58.69 58.25 57.81 57.39 57.43 57.00 54.42 48.43 53.02 54.25 52.86 50.28 47.31 38.63 38.11 34.64 33.85 33.31 32.06 33.66 33.39 32.72 32.36 31.87
37.04 36.92 38.21 38.02 37.66 38.13 38.63 38.93 39.40 40.69 42.77 45.46 47.89 51.03 53.90 56.10 51.89 48.89 53.28 57.87 56.81 56.21 55.76 55.26 55.13 43.50 45.86 45.50 46.26 47.94 49.24 48.12 42.44 41.09 36.68 35.22 34.45 34.73 33.07 32.90 31.77 30.55 30.68
34.14 35.07 35.13 35.19 34.51 35.03 35.57 36.09 36.39 37.91 39.75 41.17 42.98 45.14 47.99 51.04 48.40 47.22 45.33 54.52 55.12 55.23 55.26 53.66 46.22 45.37 42.87 48.61 44.02 43.83 43.37 44.67 44.88 44.38 37.46 37.80 36.19 35.02 33.91 32.46 31.75 31.03 31.49
31.28 32.15 32.27 32.45 32.05 32.12 33.18 34.21 35.23 36.36 36.91 38.03 40.39 42.60 44.15 46.41 45.77 45.55 43.99 50.69 54.17 53.77 53.24 50.58 49.39 45.87 42.74 41.83 41.19 39.59 38.71 39.87 39.89 41.19 42.33 39.22 38.88 36.28 36.33 34.57 33.26 30.99 29.09
28.27 28.52 30.54 29.30 26.52 27.68 29.56 32.24 34.00 34.63 35.37 35.96 37.09 38.52 39.72 41.16 42.90 42.91 43.23 44.25 45.47 44.78 47.02 47.87 48.25 43.95 41.03 40.67 38.98 36.22 34.41 34.14 38.14 39.52 39.77 39.57 38.82 37.90 35.20 32.88 30.79 29.65 19.96
25.91 27.54 25.74 24.54 24.74 25.62 28.29 31.32 33.10 33.77 33.79 34.65 34.98 36.32 37.07 38.39 40.85 41.32 42.39 41.95 41.15 41.63 38.05 38.68 36.21 42.75 39.04 40.21 39.19 36.31 34.55 33.54 33.55 33.48 34.10 35.95 36.38 35.74 35.73 33.84 32.04 29.55 19.15
23.97 22.14 21.23 21.85 22.15 24.74 29.20 31.03 31.65 32.71 33.26 33.97 34.46 35.91 36.52 37.45 38.38 40.52 41.51 41.17 41.64 40.55 39.50 37.31 36.16 39.24 38.96 39.87 40.46 36.86 37.00 33.93 35.06 33.63 33.19 32.70 32.55 32.74 32.33 30.85 31.19 29.26 19.95
18.56 17.36 17.09 17.96 21.85 25.71 26.05 26.17 29.85 31.50 31.80 32.70 33.87 34.98 36.73 36.99 36.77 38.71 40.50 41.37 42.11 39.41 39.23 38.65 36.11 38.11 38.89 39.62 38.06 38.47 37.91 34.72 33.23 32.44 32.13 31.65 31.17 30.61 30.40 29.24 28.49 25.74 25.06
13.26 12.40 13.53 15.68 17.17 19.67 21.70 25.79 28.33 31.09 31.65 31.72 32.69 33.89 35.42 36.56 36.10 37.82 39.23 39.95 40.23 38.87 38.89 37.45 37.68 37.96 38.66 38.86 38.33 37.76 34.27 33.32 32.39 31.24 31.13 31.02 31.29 30.89 29.12 27.93 28.20 28.21 27.70
9.41 10.10 11.98 12.86 14.74 16.67 17.72 19.42 21.13 23.79 27.57 30.72 31.49 32.18 34.01 35.49 36.16 35.67 35.30 36.72 36.97 37.25 35.49 35.50 36.47 37.24 37.73 37.13 34.79 36.12 33.70 33.39 32.66 32.13 31.22 30.94 29.90 28.71 28.35 28.32 26.87 27.12 26.67
8.86 9.60 10.09 11.70 11.77 12.91 15.06 16.39 19.20 22.96 27.28 28.84 31.12 32.31 32.13 32.63 35.27 37.38 36.10 35.09 36.02 36.25 33.43 33.03 33.22 33.89 33.85 32.99 33.56 34.14 32.72 32.34 31.61 31.98 30.42 28.62 28.55 28.39 28.00 28.43 27.48 26.34 23.09
7.67 8.64 9.02 9.95 11.03 12.08 12.74 13.72 20.42 24.04 27.49 31.55 34.12 34.88 34.64 36.09 36.98 37.21 37.82 37.74 37.95 37.51 33.16 33.90 33.13 33.13 32.75 32.09 32.31 31.98 31.41 31.15 31.45 30.45 29.62 28.97 27.96 27.58 27.16 27.21 25.23 24.74 22.46
7.00 7.95 8.78 9.59 10.91 11.72 12.66 13.00 13.16 18.80 26.52 30.04 33.61 35.50 36.34 36.45 36.58 36.91 37.41 37.84 37.90 37.26 33.48 34.95 33.92 33.05 33.00 32.54 32.46 31.60 30.18 30.91 31.32 30.13 29.22 28.50 27.87 27.47 26.23 24.76 23.36 22.22 20.40
6.65 8.99 10.53 11.90 12.83 13.75 14.62 15.50 16.88 18.33 21.63 24.82 31.87 34.39 35.50 35.71 35.87 36.36 36.91 37.38 34.63 35.71 33.70 34.11 33.57 33.57 33.21 32.59 32.20 31.13 30.62 30.18 29.53 29.29 28.36 27.89 27.16 25.77 24.49 23.14 22.90 21.82 20.44
7.71 8.90 10.05 10.62 12.28 13.39 14.16 15.21 15.97 17.98 19.16 21.23 27.24 32.80 33.31 35.14 35.72 36.01 36.43 34.71 33.66 33.34 33.23 33.79 34.44 33.65 32.81 32.32 32.13 31.39 30.29 28.68 29.11 28.13 27.32 26.21 25.64 24.60 23.20 22.99 22.29 20.09 17.18
6.61 8.29 8.21 8.76 9.71 10.56 11.41 11.60 11.55 11.96 13.50 14.45 16.06 16.39 20.50 22.59 31.10 31.99 33.25 33.92 33.55 33.41 33.28 33.16 33.52 32.86 32.24 31.75 31.37 30.70 28.28 28.05 26.81 25.99 24.87 24.65 24.05 23.71 21.85 20.01 18.71 16.63 15.36
5.58 5.79 6.57 6.84 7.24 8.00 8.64 8.81 9.42 9.41 9.80 9.99 11.12 13.42 20.93 14.46 14.07 18.25 24.75 29.97 31.33 32.53 32.22 31.94 31.64 31.36 31.17 30.68 28.73 26.95 25.87 24.86 24.55 23.33 21.85 20.80 20.18 19.12 18.25 18.05 16.13 14.86 12.81
3.67 3.62 4.25 4.60 5.55 5.43 6.06 7.29 7.42 7.31 7.74 7.92 8.78 10.57 16.55 10.62 10.01 9.96 10.61 11.43 13.88 17.15 21.22 22.69 22.06 22.54 23.56 24.20 23.99 23.26 21.83 19.88 19.00 18.66 17.16 16.45 16.29 15.01 14.95 13.83 12.96 11.43 10.21
0.36 0.46 1.17 1.94 2.78 3.19 3.28 4.18 4.44 4.76 5.16 5.92 6.65 7.13 7.88 8.14 8.18 8.14 8.50 9.28 10.42 11.12 13.00 15.02 15.74 15.27 16.81 18.52 20.54 21.02 19.31 18.30 18.08 17.80 15.64 14.39 13.52 12.89 13.05 11.73 10.61 9.03 8.39
-2.91 -2.46 -2.45 -1.68 -1.28 -0.72 -0.07 0.75 1.95 2.47 2.90 3.34 3.96 4.63 5.20 5.98 6.42 6.88 7.59 8.46 8.73 9.00 9.66 10.45 11.18 11.58 12.50 12.56 13.51 14.55 15.13 15.20 16.07 16.01 15.45 13.88 12.13 11.22 10.84 9.83 8.90 8.04 7.34
-4.95 -5.15 -5.23 -5.10 -5.36 -4.79 -3.93 -2.87 -1.78 -1.01 0.08 0.87 1.42 2.19 3.13 3.90 4.22 4.45 5.68 6.50 7.30 7.45 7.48 7.88 8.34 8.72 8.67 8.65 9.06 11.09 13.98 12.83 12.94 13.32 12.93 12.43 10.83 10.01 9.49 8.87 7.61 6.85 5.82
-7.96 -7.86 -7.75 -7.48 -7.74 -7.67 -7.22 -6.97 -6.28 -5.33 -4.75 -3.58 -2.06 -1.08 0.45 1.04 1.79 2.23 2.62 3.43 4.30 5.47 6.34 6.97 6.83 6.75 6.99 7.23 7.91 9.61 10.65 10.92 8.87 10.26 10.78 10.45 9.35 8.66 8.27 7.41 6.47 5.91 4.77
MSLP
1012.63 1012.04 1011.56 1010.94 1010.59 1010.44 1010.10 1009.67 1009.33 1009.00 1008.89 1008.92 1009.02 1009.09 1009.15 1009.21 1009.42 1009.67 1009.81 1010.05 1010.20 1010.27 1010.47 1010.68 1010.86 1011.21 1011.34 1011.48 1011.71 1011.82 1012.04 1012.32 1012.15 1012.10 1012.86 1013.29 1013.90 1014.50 1014.90 1015.82 1016.11 1016.22 1016.50
1013.28 1012.66 1012.10 1011.40 1010.86 1010.42 1010.13 1009.64 1009.18 1008.77 1008.40 1008.19 1008.15 1008.08 1008.03 1008.05 1008.15 1008.22 1008.47 1008.71 1008.89 1009.02 1009.20 1009.48 1009.61 1010.12 1010.27 1010.39 1010.40 1010.62 1010.90 1011.22 1011.53 1011.91 1012.67 1013.28 1013.45 1014.37 1014.56 1015.67 1015.59 1015.74 1016.17
1013.86 1013.19 1012.74 1012.33 1011.70 1010.96 1010.35 1009.90 1009.31 1008.86 1008.35 1007.82 1007.55 1007.29 1007.13 1007.00 1006.97 1007.02 1007.13 1007.28 1007.36 1007.50 1007.75 1007.98 1008.26 1008.77 1008.93 1009.17 1009.39 1009.56 1009.87 1010.28 1010.69 1010.85 1012.21 1013.15 1013.68 1013.98 1015.23 1015.54 1015.36 1015.60 1015.92
1014.41 1014.05 1013.52 1013.17 1012.84 1011.88 1010.97 1010.25 1009.65 1008.94 1008.38 1007.79 1007.17 1006.63 1006.38 1006.17 1005.96 1005.91 1006.03 1006.05 1006.03 1006.13 1006.28 1006.50 1006.86 1007.28 1007.64 1008.16 1008.52 1008.76 1009.05 1009.41 1010.07 1010.68 1011.84 1012.44 1013.11 1013.97 1014.32 1014.99 1015.63 1015.51 1015.90
1015.11 1014.67 1014.33 1013.84 1013.16 1012.52 1011.63 1010.80 1010.05 1009.27 1008.43 1007.82 1007.17 1006.43 1005.88 1005.48 1005.24 1005.14 1005.08 1005.06 1005.06 1005.06 1005.15 1005.36 1005.58 1005.78 1006.19 1006.75 1007.37 1007.71 1008.20 1008.84 1009.67 1010.44 1011.21 1011.96 1012.75 1013.50 1013.98 1014.16 1015.04 1015.26 1015.77
1016.00 1015.48 1014.96 1014.29 1013.56 1012.91 1012.13 1011.32 1010.47 1009.44 1008.67 1007.75 1006.94 1006.27 1005.57 1004.88 1004.35 1004.20 1004.33 1004.24 1004.16 1004.11 1004.20 1004.41 1004.64 1005.14 1005.56 1005.82 1006.08 1006.31 1006.83 1007.55 1008.36 1009.16 1009.94 1010.69 1011.43 1012.25 1013.08 1013.64 1014.35 1015.52 1016.17
1016.72 1016.13 1015.56 1015.07 1014.26 1013.29 1012.45 1011.60 1010.88 1009.79 1008.77 1007.87 1007.07 1006.36 1005.32 1004.51 1004.08 1003.88 1003.73 1003.84 1003.47 1003.29 1003.40 1003.62 1004.09 1004.43 1004.70 1005.15 1005.50 1005.70 1006.02 1006.37 1006.78 1007.58 1008.69 1009.11 1010.07 1010.55 1011.41 1012.90 1013.24 1013.83 1014.34
1016.91 1016.39 1015.81 1015.15 1014.65 1013.92 1012.75 1011.62 1010.59 1009.58 1008.68 1007.66 1006.63 1006.01 1005.27 1004.24 1003.72 1003.41 1003.30 1003.35 1002.98 1002.63 1002.49 1002.72 1003.10 1003.58 1004.08 1004.57 1005.16 1005.67 1005.94 1006.25 1006.58 1006.91 1007.26 1007.83 1008.26 1009.44 1009.98 1010.56 1011.79 1013.20 1013.89
1017.21 1016.79 1016.22 1015.90 1014.94 1013.95 1012.71 1011.61 1010.78 1009.86 1008.68 1007.49 1006.47 1005.61 1004.93 1004.22 1003.68 1003.00 1002.93 1002.82 1002.48 1002.23 1002.09 1001.89 1002.16 1002.58 1003.08 1003.79 1004.35 1005.27 1005.78 1006.41 1006.64 1006.69 1007.19 1007.43 1007.90 1008.84 1009.53 1010.52 1012.01 1013.07 1013.88
1017.88 1017.27 1016.94 1016.15 1015.11 1013.82 1012.71 1011.58 1010.40 1009.72 1008.47 1007.27 1006.08 1005.48 1004.58 1003.59 1003.26 1002.70 1002.55 1002.23 1001.94 1001.90 1002.01 1001.91 1001.65 1001.92 1002.42 1002.86 1003.62 1004.44 1005.25 1005.89 1006.35 1007.05 1007.42 1007.66 1008.23 1008.99 1009.34 1009.60 1010.89 1012.07 1013.28
1018.41 1017.83 1017.19 1016.38 1015.30 1014.07 1012.33 1011.39 1010.27 1009.27 1007.98 1006.83 1005.54 1004.42 1003.62 1003.19 1002.51 1002.19 1001.76 1001.38 1001.10 1001.31 1001.41 1001.38 1001.38 1001.50 1001.96 1002.27 1002.64 1003.20 1003.80 1004.90 1005.75 1006.47 1007.06 1007.72 1008.22 1008.98 1009.62 1010.30 1010.85 1011.24 1012.44
1019.14 1018.30 1017.54 1016.65 1015.57 1013.81 1012.66 1011.19 1009.82 1008.97 1007.55 1006.23 1004.97 1003.46 1002.59 1002.12 1001.89 1001.56 1001.13 1000.69 1000.40 1000.57 1000.32 1000.17 1000.52 1000.85 1001.35 1001.66 1002.20 1002.71 1003.44 1004.33 1005.37 1006.07 1006.63 1007.40 1007.85 1008.57 1009.45 1010.24 1010.78 1011.52 1011.90
1019.74 1018.61 1017.57 1016.44 1015.35 1014.15 1012.77 1010.90 1009.41 1008.31 1007.10 1005.78 1004.72 1003.13 1001.77 1001.34 1000.95 1000.82 1000.75 1000.31 999.92 999.65 999.54 999.52 999.77 1000.05 1000.50 1001.05 1001.41 1002.04 1002.92 1003.72 1004.45 1005.18 1005.72 1006.44 1006.93 1007.55 1008.68 1009.85 1010.44 1011.20 1011.88
1020.23 1018.84 1017.59 1016.24 1014.64 1013.63 1012.68 1011.18 1009.36 1007.92 1006.62 1005.19 1004.06 1002.95 1001.68 1000.80 1000.32 1000.22 1000.11 1000.04 999.68 999.28 999.19 999.16 999.29 999.65 999.93 1000.23 1001.04 1001.58 1002.07 1002.47 1002.83 1003.59 1004.59 1005.66 1006.79 1007.43 1008.01 1008.86 1009.96 1010.39 1010.91
1020.61 1018.92 1017.32 1016.20 1014.88 1013.18 1012.08 1010.90 1009.35 1007.72 1006.70 1004.96 1003.43 1002.64 1001.50 1000.15 999.82 999.62 999.23 999.22 999.04 998.74 998.99 998.90 998.97 999.11 999.54 999.93 1000.39 1000.74 1001.29 1001.89 1002.33 1002.83 1003.79 1004.59 1005.62 1006.83 1007.33 1008.03 1009.16 1010.14 1010.28
1020.39 1018.61 1017.59 1016.24 1014.68 1013.44 1011.66 1009.29 1008.85 1007.05 1005.50 1004.00 1002.59 1001.80 1000.44 999.65 999.12 998.73 998.25 998.12 997.97 998.19 998.35 997.72 997.61 997.84 998.15 998.72 999.43 1000.03 1000.52 1000.89 1001.46 1002.12 1002.92 1003.46 1004.14 1005.64 1006.96 1007.64 1008.53 1009.28 1009.87
1020.70 1018.99 1017.52 1016.08 1014.47 1013.01 1011.49 1009.81 1007.05 1004.91 1004.24 1002.70 1001.18 1000.12 999.38 998.68 998.12 997.53 997.27 996.99 996.83 997.06 996.55 996.54 996.38 996.51 996.78 997.30 998.01 998.74 999.50 1000.19 1000.91 1001.38 1001.78 1002.75 1003.67 1004.72 1006.20 1007.24 1008.15 1009.22 1010.04
1020.70 1019.02 1017.47 1015.96 1014.48 1012.92 1011.29 1009.61 1007.85 1005.68 1003.08 1001.11 999.94 998.77 998.08 997.51 996.90 996.49 996.21 995.91 995.46 995.32 995.20 995.34 995.27 995.45 995.76 996.24 996.82 997.56 998.51 999.35 1000.05 1000.84 1001.29 1001.69 1002.71 1003.74 1005.17 1006.61 1007.56 1008.37 1009.48
1020.68 1019.01 1017.52 1016.17 1014.88 1013.40 1011.71 1010.09 1008.50 1006.60 1004.88 1002.77 1000.15 998.26 997.54 996.69 996.17 995.81 995.49 994.79 994.37 994.26 994.40 994.45 994.49 994.74 995.04 995.40 995.93 996.64 997.26 997.85 998.56 999.50 1000.54 1001.01 1001.79 1002.85 1004.40 1005.81 1007.05 1008.18 1008.92
1020.61 1018.94 1017.65 1016.62 1015.33 1013.94 1012.31 1010.80 1009.36 1007.85 1006.22 1004.56 1002.87 1001.63 1000.01 998.34 996.36 995.46 994.90 994.30 993.77 993.63 993.75 993.81 994.00 994.27 994.49 994.81 995.13 995.76 996.61 997.16 997.68 998.53 999.72 1000.82 1001.79 1002.78 1004.05 1005.20 1006.39 1007.56 1008.72
1021.23 1019.93 1018.52 1017.21 1015.92 1014.88 1013.62 1012.30 1010.93 1009.46 1007.86 1006.31 1004.98 1003.70 1001.96 1000.59 999.22 997.92 996.23 994.80 994.11 993.56 993.44 993.58 993.89 994.26 994.60 994.91 995.24 995.82 996.54 997.34 997.93 998.72 999.92 1001.02 1001.98 1003.18 1004.33 1005.43 1006.39 1007.55 1008.70
1022.27 1020.92 1019.56 1018.26 1017.11 1015.96 1014.91 1013.76 1012.44 1011.03 1009.58 1008.12 1006.56 1005.06 1003.54 1002.41 1001.45 1000.52 999.61 998.48 997.24 996.18 994.94 994.28 994.44 994.73 994.88 995.08 995.49 996.08 996.76 997.50 998.38 999.23 1000.17 1001.51 1002.66 1003.54 1004.63 1005.66 1006.70 1007.81 1008.88
1022.90 1021.80 1020.51 1019.13 1017.88 1016.82 1015.87 1014.74 1013.66 1012.53 1011.23 1009.90 1008.58 1007.12 1005.71 1004.68 1003.70 1002.72 1001.82 1000.88 999.81 998.75 997.88 997.00 996.36 996.27 996.38 996.40 996.52 996.73 997.04 997.66 998.35 999.20 1000.48 1001.91 1002.84 1003.84 1004.66 1005.58 1006.70 1007.97 1008.81
1023.58 1022.46 1021.24 1020.00 1018.82 1017.94 1017.06 1015.98 1015.00 1014.11 1012.96 1011.56 1010.28 1009.11 1007.98 1006.85 1005.81 1004.84 1003.95 1003.01 1001.85 1000.84 1000.05 999.58 999.12 998.63 998.20 998.04 998.04 998.21 998.39 998.60 999.20 1000.16 1001.13 1001.94 1002.89 1003.94 1004.79 1005.71 1006.68 1007.66 1008.43
1024.06 1023.11 1022.11 1021.15 1020.24 1019.38 1018.43 1017.53 1016.57 1015.53 1014.46 1013.25 1012.02 1010.75 1009.80 1008.92 1007.85 1006.88 1005.92 1004.94 1004.04 1002.93 1002.12 1001.69 1001.32 1000.84 1000.45 1000.08 999.77 999.69 999.82 1000.02 1000.46 1001.09 1001.79 1002.43 1003.12 1004.01 1004.86 1005.77 1006.72 1007.59 1008.21
1024.62 1023.82 1023.03 1022.21 1021.35 1020.54 1019.81 1018.93 1017.90 1016.78 1015.84 1014.77 1013.64 1012.43 1011.32 1010.39 1009.61 1008.85 1008.00 1007.02 1005.88 1004.89 1004.17 1003.55 1002.91 1002.15 1001.63 1001.55 1001.55 1001.60 1001.59 1001.75 1001.98 1002.31 1002.67 1003.23 1003.59 1004.30 1005.08 1005.93 1006.74 1007.47 1008.20
Wind_Speed
13 11 8 7 6 6 7 10 11 13 14 13 15 16 16 17 18 17 18 18 18 17 16 15 16 15 11 11 10 11 11 10 13 7 3 3 3 7 6 2 4 5 3
14 13 12 10 8 7 7 9 9 10 12 13 13 16 16 17 17 18 18 16 18 17 17 16 16 12 15 14 11 14 12 11 10 14 4 3 3 3 4 4 4 3 3
13 14 15 15 13 13 12 11 10 10 11 12 12 15 16 16 17 17 18 19 19 19 17 17 17 15 15 12 12 11 10 10 9 9 4 1 3 2 3 1 3 3 3
14 13 13 14 15 14 14 13 12 11 12 12 12 14 15 15 15 17 17 18 19 18 17 17 17 17 17 15 14 14 10 9 6 3 2 3 3 2 2 3 2 1 2
15 14 14 14 13 14 14 14 13 12 11 12 13 13 13 13 12 15 16 17 18 17 15 16 16 17 17 16 10 11 9 8 4 4 3 3 3 3 5 3 2 3 1
12 14 14 15 15 14 14 15 14 13 12 11 12 12 14 11 14 16 16 15 16 15 14 14 14 11 14 18 19 18 16 12 11 7 4 5 6 4 4 5 4 3 3
12 11 11 13 16 17 15 14 13 14 13 12 12 12 14 13 13 15 15 13 12 13 15 12 7 7 10 12 14 13 13 15 6 11 7 8 7 9 9 6 4 4 3
13 12 12 13 15 17 17 17 16 14 14 13 13 12 15 13 13 14 15 13 15 13 13 12 13 12 11 10 9 8 7 7 7 7 9 8 7 10 11 7 8 5 4
12 14 14 14 18 18 18 17 15 15 15 14 13 14 13 16 18 14 11 8 11 11 10 11 12 9 13 17 11 9 6 4 4 7 7 10 12 17 13 9 7 7 2
16 16 17 17 18 18 18 18 16 15 16 13 14 13 14 16 18 16 14 7 11 9 6 7 11 11 15 21 13 12 12 9 9 6 5 8 10 11 17 6 10 10 4
18 19 18 17 19 18 18 17 18 19 19 17 18 15 15 14 16 19 19 11 10 8 8 7 6 13 17 21 18 13 12 13 14 9 8 6 6 7 5 3 5 6 4
20 20 18 17 14 15 19 18 17 18 18 18 17 15 11 12 14 18 21 22 14 10 10 7 7 17 18 21 17 14 18 16 9 8 8 8 8 7 6 5 5 4 2
20 19 19 18 16 15 16 18 16 14 13 16 14 15 13 9 7 15 20 21 21 12 7 9 14 19 20 18 20 20 21 10 10 9 10 9 9 8 9 7 6 6 4
20 20 18 18 17 15 13 13 13 13 13 14 15 15 14 11 9 5 6 8 16 12 7 7 10 13 16 14 12 15 11 11 12 12 10 9 7 8 7 7 6 7 6
18 17 17 15 16 17 14 13 14 15 16 15 15 15 16 17 11 11 10 7 8 10 6 4 6 8 9 9 9 11 10 10 11 10 10 10 10 9 9 9 7 6 4
18 14 14 14 14 14 15 16 21 29 31 31 32 24 16 25 28 25 21 22 21 17 9 10 10 11 12 12 12 11 11 13 11 11 11 12 12 11 10 8 5 8 7
17 17 14 15 13 14 14 15 19 17 29 29 29 28 29 28 30 29 26 23 24 19 12 12 12 12 12 13 12 12 13 11 11 10 11 11 11 11 12 9 8 7 5
17 20 13 13 14 14 14 15 14 15 17 16 18 19 20 24 27 28 28 22 13 18 13 13 11 12 12 12 12 12 11 10 11 11 11 12 12 12 11 10 9 9 8
14 12 14 13 13 15 14 14 14 14 14 15 16 14 14 20 24 26 28 14 13 12 12 13 11 11 11 11 12 12 14 14 14 12 11 11 11 12 11 10 9 9 8
13 19 16 13 13 14 13 14 14 14 13 13 12 13 15 18 11 10 9 10 11 10 10 12 9 9 10 11 11 12 11 12 12 12 11 10 10 10 10 10 9 9 6
12 13 18 11 12 13 13 13 13 13 13 13 12 14 31 12 12 13 12 8 7 8 7 6 5 5 6 7 6 8 8 8 9 9 8 8 9 9 8 7 8 7 7
11 12 12 11 11 12 13 13 13 13 13 14 14 16 31 13 13 13 13 12 11 10 7 4 5 4 4 6 8 9 9 9 9 9 9 8 7 8 7 7 7 7 7
11 12 11 10 11 14 12 13 13 14 14 14 15 14 15 14 14 14 13 13 12 11 11 9 6 6 6 5 4 5 8 8 9 9 10 9 8 8 8 8 8 8 7
10 11 12 11 11 12 12 13 12 16 15 14 14 14 14 14 14 15 14 13 13 12 12 11 10 11 7 7 6 6 6 7 7 7 10 9 9 9 8 8 8 9 8
9 10 10 11 11 11 12 12 12 13 13 13 13 13 13 13 14 14 14 14 13 12 13 12 10 12 12 12 12 12 10 10 7 8 6 8 10 11 8 7 8 8 8
9 9 9 9 9 10 10 11 12 12 13 12 13 13 13 13 13 13 13 14 13 12 14 10 11 15 15 11 10 10 9 9 7 7 5 5 8 7 7 8 11 7 8
Wind_Direction
349 331 320 314 300 283 268 265 252 241 236 230 227 226 224 223 223 225 226 230 231 231 230 232 233 230 228 225 223 224 228 226 247 244 176 163 181 145 133 190 152 158 188
349 345 337 324 321 311 295 283 276 263 251 241 232 232 231 230 227 225 225 225 229 229 229 228 229 228 230 229 223 222 225 223 235 249 174 174 134 107 124 179 148 163 196
354 354 347 344 341 335 326 317 298 285 273 259 245 240 236 234 230 228 225 226 226 227 226 224 225 225 229 225 226 225 225 226 221 232 191 135 100 151 133 214 138 171 213
352 351 350 347 338 334 329 324 316 307 296 280 263 251 249 245 236 232 230 230 230 229 225 223 223 222 224 227 229 227 221 215 200 149 136 149 133 172 123 163 184 153 180
345 345 341 336 335 331 332 329 322 314 304 295 287 274 257 250 244 239 235 234 232 229 225 222 222 222 220 219 215 218 206 206 168 166 153 140 150 142 196 159 156 119 169
340 333 333 334 332 330 327 324 318 313 304 299 291 278 273 264 245 230 234 234 230 228 225 222 224 215 221 217 212 215 198 200 202 193 173 174 172 168 152 158 131 152 206
330 324 327 330 328 328 323 317 310 308 305 295 292 288 276 267 253 240 229 242 237 228 227 224 206 209 206 217 218 212 202 203 190 190 176 188 165 172 151 156 162 164 169
327 328 329 330 328 322 319 317 314 311 307 299 291 286 288 278 262 245 237 240 244 239 226 213 211 207 201 191 181 186 188 183 177 183 194 180 168 166 172 169 163 117 75
328 329 329 334 321 318 314 310 309 305 302 296 288 285 280 281 274 244 230 238 245 242 226 213 213 202 192 185 173 173 159 162 173 170 173 162 158 164 152 127 148 155 144
332 328 328 319 316 312 308 307 308 301 295 296 287 275 271 273 271 249 232 233 243 240 232 225 209 204 183 179 180 173 178 180 155 130 130 133 140 158 159 156 159 167 127
325 320 320 317 312 303 305 308 308 304 301 298 293 288 281 275 276 265 237 238 238 236 227 218 208 197 185 187 187 183 189 156 162 150 143 138 137 147 155 131 163 157 136
323 319 317 312 305 309 307 303 298 299 298 298 297 289 280 281 264 270 259 238 232 225 226 212 191 191 192 192 185 182 162 153 154 156 158 166 163 159 157 139 117 99 72
321 316 314 312 308 301 298 302 302 298 294 293 293 294 294 288 272 255 256 248 234 231 236 202 192 190 193 195 186 175 161 165 166 170 175 177 177 159 135 126 125 121 107
314 314 313 311 311 310 301 297 295 295 291 288 290 289 292 291 286 255 242 255 246 233 212 192 196 199 192 182 172 176 176 180 179 179 178 167 152 155 158 155 161 162 146
313 311 312 309 310 308 300 299 293 285 282 285 281 284 289 288 286 276 238 241 239 232 187 183 194 189 189 182 187 188 181 181 184 176 170 163 164 168 172 166 161 163 155
314 317 313 309 310 307 305 303 290 291 289 281 277 271 273 270 277 275 267 241 233 219 213 220 208 199 194 188 192 190 189 185 185 174 172 172 166 170 173 167 156 176 168
316 314 312 309 308 307 305 304 307 306 295 294 285 276 268 267 273 274 269 251 235 215 224 232 219 204 198 193 192 190 191 190 180 179 173 169 165 164 164 168 164 164 161
317 315 319 319 316 314 310 305 298 297 307 311 291 279 271 264 266 270 274 258 241 227 222 232 223 211 204 198 191 188 183 178 178 176 174 167 168 162 163 170 176 171 162
324 326 331 328 323 322 323 322 320 320 319 317 323 298 286 266 265 269 276 258 240 233 225 231 226 215 207 197 194 190 184 180 177 172 174 167 162 159 164 167 165 161 136
328 334 341 335 335 334 336 336 335 335 334 334 338 338 333 332 293 281 274 261 244 239 231 229 230 217 208 201 193 188 183 180 169 165 161 160 157 158 159 155 156 156 156
333 330 337 338 345 341 341 342 342 342 344 346 344 342 354 350 350 349 336 321 288 248 236 221 210 204 204 199 177 170 165 162 157 144 143 143 143 142 136 139 135 135 136
329 332 336 342 342 344 344 344 345 348 350 351 350 351 1 4 1 358 353 350 350 350 359 78 95 98 129 149 153 152 149 141 136 132 127 125 127 124 131 134 137 140 146
331 333 335 341 347 346 346 350 351 351 351 353 354 355 0 2 1 3 359 355 357 1 360 6 29 51 47 55 74 132 143 145 141 135 132 138 138 139 146 148 149 150 157
332 338 342 346 350 348 348 347 349 350 349 353 355 357 358 359 1 1 1 358 2 6 10 11 14 22 30 44 46 50 78 91 99 119 135 142 141 145 144 145 155 156 147
337 342 345 346 347 346 344 346 346 347 347 350 352 356 356 357 359 1 359 360 359 4 9 9 11 16 26 33 38 40 58 76 88 115 122 133 142 148 150 152 154 151 144
337 341 342 342 344 345 343 341 342 346 346 348 348 351 352 357 356 359 356 358 357 360 1 3 7 15 21 25 32 39 47 68 70 83 103 130 142 147 150 154 154 151 150